Regional Weather Roundup
Issued by NWS Little Rock, AR

Home | Current Version | Previous Version | Text Only | Print | Product List | Glossary Off
Versions: 1 2 3 4 5 6 7 8 9 10 11 12 13 14 15 16 17 18 19 20 21 22 23 24 25 26 27 28 29 30 31 32 33 34 35 36 37 38 39 40 41 42 43 44 45 46 47 48 49

000
ASUS44 KLZK 210910
RWRLZK
ARKANSAS STATE WEATHER ROUNDUP
NATIONAL WEATHER SERVICE LITTLE ROCK AR
ISSUED BY NATIONAL WEATHER SERVICE MEMPHIS TN
400 AM CDT THU SEP 21 2017

NOTE: "FAIR" INDICATES FEW OR NO CLOUDS BELOW 12,000 FEET WITH NO
SIGNIFICANT WEATHER AND/OR OBSTRUCTIONS TO VISIBILITY.

ARZ001-003-010-029-211000-
NORTHWEST ARKANSAS

CITY           SKY/WX    TMP DP  RH WIND       PRES   REMARKS
FORT SMITH     CLEAR     73  71  93 NE5       29.92S
HARRISON       CLEAR     73  70  90 CALM      29.99S
BENTONVILLE    CLEAR     73  69  87 S5        29.98R
ROGERS         CLEAR     73  70  90 SE6       29.97S
SILOAM SPGS    CLEAR     74  70  87 SE3       29.96R
HIGHFILL       CLEAR     72  70  93 S5        29.96S
$$

ARZ004-005-016-211000-
NORTH CENTRAL ARKANSAS

CITY           SKY/WX    TMP DP  RH WIND       PRES   REMARKS
BATESVILLE     CLEAR    N/A N/A N/A S3        29.99R
FLIPPIN        CLEAR     71  69  93 CALM      29.97S
MTN HOME       CLEAR     72  71  97 S3        29.97
$$

ARZ040-041-211000-
WEST CENTRAL ARKANSAS

CITY           SKY/WX    TMP DP  RH WIND       PRES   REMARKS
MOUNT IDA      CLEAR     77  70  79 CALM      29.94F
$$

ARZ017-025-026-028-211000-
NORTHEAST ARKANSAS

CITY           SKY/WX    TMP DP  RH WIND       PRES   REMARKS
JONESBORO      CLEAR     70  70 100 NE3       29.99S
NEWPORT        CLEAR     70  69  97 S5        29.99R
BLYTHEVILLE    CLEAR     74  73  97 S6        30.01R
$$

ARZ022-033-042-044-211000-
CENTRAL ARKANSAS

CITY           SKY/WX    TMP DP  RH WIND       PRES   REMARKS
LITTLE ROCK    CLEAR     73  73 100 E5        29.98R
JACKSONVILLE   CLEAR     74  73  98 CALM      29.97S
SEARCY         PTCLDY    71  71 100 CALM      30.00R FOG
HOT SPRINGS    CLEAR     76  71  85 CALM      29.96F
RUSSELLVILLE   CLEAR     72  71  97 CALM      29.95S
$$

ARZ036-211000-
EAST ARKANSAS

CITY           SKY/WX    TMP DP  RH WIND       PRES   REMARKS
WEST MEMPHIS   CLEAR     71  71 100 S3        29.99R
$$

ARZ050-070-073-211000-
SOUTHWEST ARKANSAS

CITY           SKY/WX    TMP DP  RH WIND       PRES   REMARKS
TEXARKANA      CLEAR     74  73  97 S7        29.94F
EL DORADO      CLEAR     72  70  93 S8        29.97F
DEQUEEN        CLOUDY    73  73 100 E3        29.93S
$$

ARZ056-057-069-211000-
SOUTHEAST ARKANSAS

CITY           SKY/WX    TMP DP  RH WIND       PRES   REMARKS
PINE BLUFF     CLEAR     73  71  93 SE3       29.98S
STUTTGART      CLEAR     75  72  90 SE6       29.99R
MONTICELLO     CLEAR     75  71  87 CALM      29.98F
$$





USA.gov is the U.S. government's official web portal to all federal, state and local government web resources and services.